User: anonymous   Login
Location: Oakhurst
(33.6448°N, 111.9543°W)
Time: 20:41:59
(UTC+00:00)
Language:

KAITUO 1B - Orbit

View from above orbital plane
View from above orbital plane
View from above satellite
View from above satellite

Ground track
Ground track

The orbit data is extracted from the following two-line orbital elements,

1 40912U 15049P   21204.55062661  .00001954  00000-0  89155-4 0  9996
2 40912  97.4432 213.7732 0015017  23.0472  94.5607 15.21729034323681
Epoch (UTC): 23 July 2021 13:12:54
Eccentricity: 0.0015017
inclination: 97.4432°
perigee height: 490 km
apogee height: 511 km
right ascension of ascending node: 213.7732°
argument of perigee: 23.0472°
revolutions per day: 15.21729034
mean anomaly at epoch: 94.5607°
orbit number at epoch: 32368

The dashed part of the orbit path shows where the satellite is in the earth's shadow,  

DLR